Temperature
21 20 20 20 19 19 19 19 19 19 18 18 18 18 18 18 18 18 18 18 18 18 17 17 17 17 17 17 17 16 16 16 16 16 16 16 16 16 16 15 15 15 15
21 20 20 20 19 19 19 19 19 18 18 18 18 18 18 18 18 18 18 17 17 17 17 17 17 17 17 17 16 16 16 16 16 15 16 16 15 15 15 15 15 15 15
20 20 20 19 19 19 19 19 18 18 18 18 18 18 18 18 18 17 17 17 17 17 17 17 17 17 17 16 16 16 16 16 15 15 15 15 15 15 15 15 15 15 14
20 20 19 19 19 19 19 19 18 18 18 18 18 18 18 17 17 17 17 17 17 17 17 17 17 16 16 16 16 16 16 15 15 15 15 15 15 15 15 15 14 14 14
19 19 19 19 19 19 19 18 18 18 18 18 18 18 17 17 17 17 17 17 17 17 17 17 16 16 16 16 16 16 15 15 15 15 15 14 14 14 14 14 14 14 14
19 19 19 18 18 18 18 18 18 18 18 18 17 17 17 17 17 17 17 17 17 17 16 16 16 16 16 16 15 15 15 15 15 15 14 14 14 14 14 14 13 13 13
19 19 18 18 18 18 18 18 18 18 17 17 17 17 17 17 17 17 16 16 16 16 16 16 16 16 15 15 15 15 15 15 14 14 14 14 14 14 13 13 13 13 13
19 19 18 18 18 18 18 18 17 17 17 17 17 17 17 17 17 16 16 16 16 16 16 16 15 15 15 15 15 15 14 14 14 14 14 14 13 13 13 13 13 13 13
18 18 18 18 17 17 17 17 17 17 17 17 17 17 17 16 16 16 16 16 16 15 15 15 15 15 15 14 14 14 14 14 14 14 13 13 13 13 13 13 13 12 12
17 17 17 17 17 17 17 17 17 17 17 17 17 17 16 16 16 16 15 15 15 15 15 15 15 15 14 14 14 14 14 14 14 13 13 13 13 13 12 12 12 12 12
17 17 17 17 17 17 17 16 16 16 16 16 16 16 16 16 16 15 15 15 15 15 15 15 15 14 14 14 14 13 13 13 13 13 13 13 13 12 12 12 12 12 11
16 16 16 16 16 16 16 16 16 16 16 16 16 16 16 16 15 15 15 15 14 14 14 14 14 14 14 13 13 13 13 13 12 12 12 12 12 12 12 11 11 11 11
16 16 16 16 16 16 16 16 15 15 15 15 15 15 15 15 15 15 14 14 14 14 14 14 13 13 13 13 13 12 12 12 12 12 12 12 12 11 11 11 11 11 11
15 15 15 15 15 15 15 15 15 15 15 14 14 14 14 14 14 14 14 14 14 13 13 13 13 13 12 12 12 12 12 12 11 11 11 11 11 11 11 11 11 11 11
15 15 15 15 15 15 15 14 14 14 14 14 14 14 14 14 14 14 14 13 13 13 13 13 12 12 12 12 12 12 11 11 11 11 11 11 10 10 10 10 10 10 10
15 15 14 14 14 14 14 14 14 14 14 14 14 13 13 13 13 13 13 13 13 12 12 12 12 12 12 12 11 11 11 11 11 10 10 10 10 10 10 9 9 9 9
14 14 14 14 14 13 13 13 13 13 13 13 13 13 13 13 13 13 13 12 12 12 12 12 12 11 11 11 11 11 10 10 10 10 10 10 9 9 9 9 9 9 9
13 13 13 13 13 13 13 13 13 13 13 13 13 13 13 12 12 12 12 12 12 11 11 11 11 11 11 11 10 10 10 10 10 10 9 9 9 9 9 9 8 8 8
13 13 13 13 13 13 13 13 13 12 12 12 12 12 12 12 12 12 11 11 11 11 11 11 11 11 11 10 10 10 10 10 10 9 9 9 9 9 8 8 8 8 8
13 13 13 13 13 13 12 12 12 12 12 12 12 12 12 12 11 11 11 11 11 11 11 11 10 10 10 10 10 9 9 9 9 9 9 9 8 8 8 8 8 8 7
12 12 12 12 12 12 12 12 12 12 12 12 11 11 11 11 11 11 11 11 10 10 10 10 10 10 10 9 9 9 9 9 9 8 8 8 8 8 8 7 7 7 7
12 12 12 12 12 12 12 12 12 11 11 11 11 11 11 11 11 10 10 10 10 10 10 10 10 9 9 9 9 9 9 9 8 8 8 8 7 7 7 7 7 7 7
11 11 11 11 11 11 11 11 11 11 11 11 11 11 11 10 10 10 10 10 10 10 10 10 9 9 9 9 9 9 9 8 8 8 8 7 7 7 7 7 7 6 6
11 11 11 11 11 11 11 11 11 10 10 10 10 10 10 10 10 10 9 9 9 9 9 9 9 9 9 9 8 8 8 8 8 8 7 7 7 7 7 6 6 6 6
11 10 10 10 10 10 10 10 10 10 10 10 10 10 10 9 9 9 9 9 9 9 9 9 9 9 8 8 8 8 8 8 7 7 7 7 7 6 6 6 6 6 6
10 10 10 10 10 10 10 10 9 9 9 9 9 9 9 9 9 9 9 9 9 9 9 9 8 8 8 8 8 7 7 7 7 7 7 6 6 6 6 6 6 5 5
Wind_Speed
6 5 4 4 4 3 3 3 3 2 2 3 3 2 2 2 2 1 2 1 2 2 2 2 2 2 1 2 2 2 2 3 4 3 2 2 2 3 3 3 3 2 2
5 5 4 4 3 3 3 3 3 3 2 3 2 2 2 2 2 2 2 2 2 3 3 2 3 2 2 2 2 2 2 3 3 4 3 2 3 3 2 2 2 2 2
4 4 4 4 4 4 4 3 3 3 3 2 2 3 3 3 2 3 3 3 3 3 3 3 4 3 3 2 3 3 2 2 3 3 3 2 2 2 2 2 2 2 2
3 3 4 4 4 4 3 3 3 4 3 3 3 3 3 3 3 2 2 3 3 3 3 4 4 4 4 3 3 3 3 2 2 3 3 2 2 2 1 2 2 2 2
3 3 4 3 3 3 3 3 4 4 4 3 2 2 2 2 2 2 2 3 3 3 3 4 4 4 4 4 3 3 3 2 2 3 3 2 2 2 2 2 3 3 2
4 4 3 2 3 3 3 3 3 3 3 2 3 3 3 3 3 3 3 3 3 3 4 4 4 4 4 4 4 4 4 4 3 3 3 4 4 3 3 3 3 2 3
4 3 3 4 3 3 3 3 3 3 3 3 4 3 4 4 4 4 4 3 3 3 3 3 3 3 2 3 3 3 4 4 5 4 4 5 4 4 3 3 3 3 4
2 2 2 3 3 3 2 3 3 3 3 3 3 3 3 4 3 3 3 3 3 3 3 4 4 3 3 2 2 2 3 4 4 4 5 5 5 4 4 4 4 3 3
3 3 3 3 3 2 2 3 3 2 2 2 2 2 2 4 3 3 3 2 3 4 4 3 3 3 3 2 2 3 4 4 3 3 4 4 4 3 3 2 2 2 3
4 4 3 4 4 4 4 3 2 2 2 2 2 2 3 4 3 3 3 3 3 4 3 3 3 3 3 2 2 3 4 4 3 2 2 2 2 2 3 4 4 3 2
3 3 3 4 4 4 3 3 2 2 2 2 3 3 3 4 3 3 3 3 4 4 3 3 3 3 3 4 4 4 5 4 3 2 1 1 1 1 2 2 3 4 4
2 2 3 3 3 3 3 3 3 3 3 3 3 3 3 3 3 3 4 5 4 4 4 4 3 4 4 3 3 3 3 2 1 1 1 1 1 2 2 3 3 3 4
2 3 4 4 3 3 4 3 3 3 3 3 3 3 3 3 3 3 4 4 4 3 3 4 4 3 2 2 2 2 1 1 1 1 2 2 2 2 2 2 3 2 1
2 3 4 3 3 3 3 3 4 4 4 3 3 4 3 3 3 2 2 3 3 2 3 2 2 1 1 1 1 1 1 1 2 2 2 1 1 1 1 1 1 1 2
2 3 3 3 3 3 3 3 4 4 5 5 4 4 4 4 5 4 3 3 3 2 1 0 0 0 1 1 1 1 1 1 1 1 1 1 1 1 1 1 1 1 1
2 3 2 2 2 2 2 2 3 4 4 5 5 5 4 5 4 4 4 4 3 2 2 1 2 2 2 2 2 2 1 2 2 2 2 1 1 1 1 1 1 1 1
3 3 3 2 2 2 2 2 2 2 2 2 3 4 4 4 3 4 3 2 2 3 1 2 3 3 3 2 2 2 2 2 2 2 2 2 2 2 1 1 1 1 1
3 3 2 2 2 2 3 3 2 2 2 2 2 3 3 3 3 3 2 2 1 1 2 3 3 3 2 3 3 2 2 2 2 2 2 2 2 2 2 1 1 1 2
2 2 2 2 2 2 2 2 2 2 2 2 1 1 1 2 2 1 2 1 2 3 3 3 3 3 2 2 2 2 2 2 2 2 1 1 1 1 1 2 2 2 1
2 3 1 1 1 1 1 2 2 2 2 2 2 1 1 0 1 1 1 1 2 3 3 3 2 2 2 2 1 1 1 1 1 1 1 1 1 1 1 2 2 2 2
1 2 1 1 1 1 1 2 2 2 2 2 2 1 1 2 2 1 1 2 2 2 2 2 2 1 1 1 1 1 1 1 1 1 1 1 1 1 1 1 1 1 1
1 1 1 1 1 1 1 1 0 1 1 1 1 1 2 1 1 1 1 2 2 1 1 1 1 1 2 2 2 2 1 1 1 1 1 1 1 1 1 1 0 0 0
1 0 1 1 1 1 1 1 0 0 1 1 0 0 1 1 1 1 1 1 2 1 1 1 0 1 1 1 1 2 2 2 2 2 2 2 2 2 2 2 1 1 0
1 1 1 0 0 0 0 0 1 1 0 1 1 0 1 1 1 1 1 1 1 1 1 1 1 1 1 0 1 1 2 2 2 2 3 3 3 2 2 2 1 1 1
1 1 1 1 1 1 0 1 1 1 1 1 1 0 1 1 1 1 1 1 1 0 1 1 1 1 1 0 0 1 1 1 1 1 2 2 2 2 2 2 2 2 2
1 1 1 1 1 0 0 0 1 1 1 1 1 0 0 0 1 1 1 1 1 1 0 1 1 0 1 1 1 1 1 1 1 1 2 2 2 2 2 2 2 2 2
Wind_Direction
176 178 178 185 196 190 196 211 214 214 209 209 212 210 208 209 197 186 211 210 209 236 238 226 251 251 246 247 229 219 220 212 235 269 271 277 276 294 314 313 306 300 300
180 174 181 188 187 194 206 217 210 211 214 215 214 216 223 223 213 204 223 228 223 235 246 243 256 253 250 251 237 232 228 218 220 255 276 281 266 276 288 291 310 306 302
177 177 183 190 195 205 212 215 215 220 225 220 214 222 232 233 230 225 224 233 238 243 248 247 252 248 257 251 238 237 236 232 224 238 265 268 268 285 296 294 298 310 305
168 181 195 205 208 209 212 209 216 218 220 224 229 234 238 235 231 227 224 235 244 255 257 252 249 241 245 241 237 233 226 230 240 247 262 270 272 277 263 287 303 303 293
160 192 214 212 208 206 206 210 215 221 225 219 225 238 242 234 231 221 233 239 243 258 266 258 250 241 239 234 232 221 212 221 237 248 258 267 268 277 269 267 275 293 285
172 198 206 207 210 215 217 206 206 217 224 218 225 231 240 243 234 215 211 235 240 244 258 265 263 260 255 244 237 227 214 215 227 237 248 250 256 254 259 255 269 281 284
183 199 202 203 210 222 222 211 216 220 215 221 232 227 238 249 243 228 212 218 233 243 247 255 263 273 267 262 255 243 240 229 215 218 236 247 251 244 240 253 252 255 258
183 196 202 201 209 205 201 216 231 228 216 220 231 234 239 254 243 229 223 225 239 247 244 241 247 264 263 251 260 269 270 262 242 231 234 242 247 237 225 236 248 262 279
202 208 208 195 194 193 203 218 223 217 224 230 234 232 249 268 254 230 202 230 246 257 256 251 247 256 264 236 224 253 273 280 277 257 251 255 255 245 217 208 219 233 268
224 219 216 208 205 208 214 221 221 212 226 234 253 246 243 262 267 240 207 225 247 263 270 265 253 251 246 209 213 235 259 273 279 295 314 313 290 252 219 214 213 223 252
246 222 221 217 215 214 214 215 208 212 230 241 249 253 249 258 270 251 221 224 236 248 259 266 266 251 239 226 217 231 244 250 244 237 253 321 342 325 295 262 237 224 235
268 254 246 236 229 223 206 216 210 206 221 243 253 265 268 272 274 272 248 235 232 233 250 256 258 244 237 230 230 250 248 236 231 229 226 272 289 302 313 311 282 257 247
258 261 259 245 230 220 210 216 215 214 223 237 242 256 275 280 277 271 260 248 242 242 254 255 252 238 236 240 246 228 188 193 211 230 241 257 270 283 316 329 340 334 331
264 268 260 246 238 231 216 210 215 220 226 233 241 251 265 271 274 277 273 267 264 265 279 282 262 227 220 234 224 224 210 205 210 231 247 268 301 326 326 329 321 328 337
261 263 262 254 235 232 229 223 219 225 222 222 232 232 242 259 262 253 249 252 249 246 223 237 342 326 293 291 282 267 235 202 214 227 220 243 282 295 309 319 315 321 321
269 274 266 263 256 240 237 257 242 231 230 227 229 229 245 250 256 239 247 249 247 198 165 218 243 243 244 247 246 239 230 227 226 219 220 223 231 244 270 305 292 298 312
253 264 265 257 253 248 234 224 255 289 290 248 241 236 241 252 242 234 238 229 196 165 193 240 249 250 248 245 237 229 232 235 220 202 213 227 229 233 231 241 249 269 283
273 265 262 252 245 239 234 229 226 231 257 286 277 254 249 246 240 237 200 129 131 205 241 243 248 248 245 240 233 228 224 218 217 211 206 218 223 217 214 230 238 251 258
279 276 264 260 251 238 236 233 232 232 236 258 296 313 284 270 258 243 162 180 224 240 250 252 253 249 246 242 239 228 222 217 223 226 216 207 216 218 225 240 242 235 243
278 287 279 256 243 241 236 229 228 224 226 237 242 251 287 355 312 309 265 258 249 250 253 254 253 251 243 237 234 225 222 221 212 224 226 207 192 207 227 241 240 238 244
268 281 289 298 272 245 242 227 223 218 215 232 253 247 209 220 234 249 258 261 254 251 248 251 245 232 233 235 226 219 215 217 206 216 220 209 180 190 236 248 245 236 249
259 281 291 290 310 327 298 265 187 203 213 219 275 256 193 182 210 242 264 278 279 276 258 228 223 225 222 220 209 211 218 221 226 226 218 196 185 184 174 158 162 288 295
222 264 341 343 344 5 18 18 34 302 292 289 273 147 190 232 257 272 273 286 300 301 281 244 236 272 259 227 217 209 219 237 236 218 200 191 188 189 180 179 188 198 206
201 188 200 287 344 14 3 344 344 333 341 325 308 270 243 240 252 270 289 305 325 337 336 312 277 274 306 229 216 222 230 245 238 210 193 187 190 193 191 191 208 223 218
200 201 209 231 248 262 284 319 335 343 348 341 340 285 261 251 268 286 304 312 314 315 315 303 293 298 277 260 280 287 304 316 275 199 170 170 171 177 188 200 208 216 219
167 175 185 188 187 209 276 330 339 4 356 346 1 338 282 260 270 285 297 292 280 281 294 276 300 319 314 294 321 328 302 277 193 162 161 161 167 183 187 193 201 210 211
Height
1516 1518 1520 1521 1523 1524 1524 1525 1526 1527 1527 1527 1527 1527 1527 1527 1527 1527 1526 1526 1526 1526 1526 1525 1525 1525 1524 1523 1523 1522 1522 1521 1519 1518 1518 1518 1517 1516 1515 1515 1514 1514 1513
1514 1516 1518 1519 1520 1521 1522 1523 1524 1525 1525 1525 1525 1525 1525 1525 1525 1525 1524 1524 1524 1523 1523 1523 1522 1522 1521 1521 1520 1520 1519 1518 1517 1515 1515 1514 1514 1513 1512 1511 1511 1510 1509
1512 1514 1515 1516 1518 1519 1519 1520 1521 1522 1523 1523 1523 1523 1523 1523 1523 1522 1522 1522 1521 1521 1521 1520 1520 1520 1519 1518 1517 1516 1516 1515 1514 1513 1511 1511 1510 1509 1509 1508 1507 1507 1506
1510 1511 1513 1514 1515 1516 1517 1518 1519 1520 1520 1520 1520 1520 1520 1520 1520 1520 1519 1519 1518 1518 1518 1518 1517 1517 1516 1515 1514 1513 1512 1512 1511 1509 1508 1507 1506 1506 1505 1504 1503 1503 1502
1508 1509 1510 1511 1512 1513 1514 1515 1516 1516 1517 1517 1517 1517 1517 1517 1517 1516 1516 1516 1515 1515 1514 1514 1514 1513 1512 1512 1511 1510 1509 1508 1507 1506 1504 1504 1503 1502 1501 1500 1499 1499 1498
1505 1507 1508 1509 1509 1510 1511 1512 1512 1513 1513 1514 1514 1514 1514 1514 1514 1513 1513 1512 1512 1511 1511 1510 1510 1509 1509 1508 1507 1506 1506 1504 1503 1502 1501 1500 1499 1498 1498 1497 1496 1495 1494
1503 1504 1505 1505 1506 1507 1507 1508 1509 1509 1510 1510 1510 1510 1510 1510 1510 1510 1510 1509 1508 1507 1507 1506 1506 1505 1505 1504 1503 1502 1501 1500 1499 1499 1497 1496 1495 1494 1494 1493 1493 1492 1491
1501 1501 1502 1503 1503 1503 1504 1504 1505 1506 1506 1506 1506 1507 1507 1507 1507 1506 1506 1505 1504 1503 1503 1502 1502 1501 1500 1500 1499 1498 1497 1496 1495 1494 1493 1492 1492 1491 1490 1490 1489 1489 1488
1498 1498 1499 1499 1500 1500 1500 1501 1502 1503 1503 1503 1503 1502 1502 1502 1502 1502 1502 1501 1500 1499 1499 1498 1497 1497 1496 1496 1495 1494 1493 1492 1491 1490 1489 1489 1488 1487 1487 1486 1486 1485 1484
1495 1495 1496 1497 1497 1497 1497 1498 1499 1499 1499 1499 1499 1499 1499 1499 1498 1498 1498 1496 1495 1494 1494 1493 1493 1492 1492 1491 1490 1489 1488 1487 1486 1485 1485 1485 1484 1484 1483 1483 1482 1481 1480
1492 1493 1493 1493 1493 1494 1494 1494 1495 1495 1495 1495 1495 1495 1495 1494 1494 1493 1493 1492 1491 1490 1489 1488 1488 1487 1487 1486 1485 1485 1484 1483 1482 1482 1481 1480 1480 1480 1479 1479 1478 1478 1477
1489 1489 1490 1490 1490 1490 1490 1490 1491 1491 1491 1491 1491 1490 1490 1489 1489 1488 1488 1487 1486 1485 1484 1484 1483 1483 1482 1481 1481 1480 1480 1479 1479 1478 1477 1476 1476 1476 1475 1475 1475 1474 1474
1486 1486 1486 1486 1486 1485 1486 1485 1486 1487 1487 1486 1486 1485 1485 1485 1484 1484 1484 1483 1482 1481 1480 1480 1479 1478 1478 1477 1477 1476 1475 1474 1474 1474 1473 1472 1472 1472 1472 1472 1471 1471 1470
1481 1482 1482 1482 1481 1481 1481 1481 1482 1482 1482 1482 1481 1480 1480 1480 1480 1480 1479 1479 1478 1477 1476 1476 1475 1474 1474 1473 1472 1472 1471 1470 1470 1470 1469 1469 1468 1468 1468 1468 1467 1466 1466
1478 1479 1479 1478 1477 1477 1477 1477 1477 1477 1478 1477 1477 1477 1476 1475 1476 1476 1475 1474 1474 1473 1472 1471 1471 1470 1469 1468 1468 1468 1467 1467 1466 1466 1466 1465 1465 1464 1464 1464 1464 1463 1463
1475 1475 1475 1474 1474 1473 1473 1473 1473 1473 1473 1473 1473 1473 1472 1472 1472 1472 1471 1471 1470 1470 1469 1467 1466 1465 1464 1464 1464 1463 1463 1463 1463 1463 1462 1462 1461 1461 1461 1461 1461 1460 1460
1472 1471 1471 1471 1470 1470 1469 1469 1469 1469 1469 1469 1469 1469 1469 1468 1468 1468 1467 1466 1466 1465 1464 1463 1462 1461 1460 1460 1459 1459 1459 1459 1459 1459 1459 1458 1458 1458 1458 1458 1458 1457 1457
1470 1469 1469 1468 1467 1467 1466 1466 1466 1465 1465 1465 1465 1465 1464 1464 1464 1463 1463 1462 1461 1460 1459 1459 1458 1457 1457 1456 1456 1455 1456 1456 1456 1455 1455 1455 1455 1455 1455 1455 1455 1454 1454
1467 1466 1466 1465 1465 1464 1464 1463 1463 1463 1462 1462 1461 1461 1461 1461 1460 1460 1458 1458 1457 1456 1456 1455 1455 1454 1454 1453 1453 1452 1452 1452 1453 1453 1452 1452 1452 1452 1452 1452 1452 1452 1451
1464 1463 1463 1462 1462 1461 1461 1460 1460 1459 1459 1458 1458 1457 1457 1457 1456 1455 1455 1454 1453 1453 1453 1452 1452 1451 1451 1450 1450 1450 1449 1449 1449 1450 1449 1449 1449 1449 1449 1449 1449 1449 1449
1460 1460 1460 1459 1459 1458 1457 1457 1457 1456 1456 1455 1455 1454 1454 1453 1453 1452 1452 1451 1451 1450 1449 1449 1449 1449 1448 1448 1448 1447 1447 1447 1446 1446 1447 1447 1446 1447 1447 1447 1447 1447 1447
1457 1457 1456 1456 1455 1455 1455 1455 1454 1454 1453 1453 1452 1452 1452 1451 1450 1450 1449 1449 1449 1448 1448 1447 1447 1446 1446 1446 1446 1445 1445 1445 1444 1444 1444 1444 1445 1445 1445 1445 1445 1445 1445
1454 1454 1454 1454 1454 1453 1453 1453 1452 1451 1451 1450 1450 1449 1449 1448 1448 1448 1447 1447 1447 1447 1446 1446 1445 1445 1445 1445 1445 1444 1444 1443 1443 1443 1442 1442 1443 1443 1443 1443 1444 1444 1443
1452 1452 1452 1452 1452 1452 1451 1451 1450 1449 1449 1448 1448 1447 1447 1447 1446 1446 1446 1446 1446 1446 1445 1445 1445 1444 1444 1444 1444 1443 1443 1443 1442 1441 1440 1440 1441 1441 1441 1441 1442 1442 1442
1451 1450 1450 1450 1450 1449 1449 1448 1448 1447 1446 1446 1446 1446 1445 1445 1445 1445 1445 1445 1445 1444 1444 1444 1444 1443 1443 1443 1442 1442 1442 1441 1441 1440 1440 1440 1439 1440 1440 1440 1440 1440 1440
1448 1448 1448 1448 1448 1447 1447 1446 1445 1444 1444 1444 1444 1444 1444 1444 1444 1444 1444 1443 1443 1443 1443 1443 1442 1442 1442 1441 1441 1441 1441 1440 1439 1439 1438 1438 1438 1438 1439 1438 1438 1438 1439